| time (UTC) | temp C | wind direction | speed KPH | gust KPH | rain 1hr cm | rain 24hr cm | rain mn cm | humidity % | barometer mb |
| 20260504024559 | 8 | 359 | 33.8 | 48.3 | 0.00 | 0.00 | 0.00 | 56 | 1007.6 |
| 20260504023058 | 9 | 35 | 25.7 | 49.9 | 0.00 | 0.00 | 0.00 | 56 | 1007.3 |
| 20260504021559 | 10 | 32 | 24.1 | 37.0 | 0.00 | 0.00 | 0.00 | 46 | 1006.6 |
| 20260504020059 | 11 | 43 | 30.6 | 51.5 | 0.00 | 0.00 | 0.00 | 42 | 1006.0 |
| 20260504014618 | 12 | 10 | 29.0 | 46.7 | 0.00 | 0.00 | 0.00 | 35 | 1005.4 |
| 20260504013104 | 12 | 359 | 29.0 | 48.3 | 0.00 | 0.00 | 0.00 | 34 | 1005.4 |
| 20260504011605 | 12 | 331 | 43.5 | 57.9 | 0.00 | 0.00 | 0.00 | 34 | 1005.3 |
| 20260504004601 | 13 | 18 | 32.2 | 70.8 | 0.00 | 0.00 | 0.00 | 36 | 1005.0 |
| 20260504003100 | 13 | 351 | 35.4 | 57.9 | 0.00 | 0.00 | 0.00 | 33 | 1005.0 |
| 20260504001616 | 13 | 4 | 37.0 | 53.1 | 0.00 | 0.00 | 0.00 | 33 | 1004.9 |
| 20260503234600 | 13 | 12 | 40.2 | 57.9 | 0.00 | 0.00 | 0.00 | 35 | 1004.7 |
| 20260503233103 | 13 | 8 | 38.6 | 59.5 | 0.00 | 0.00 | 0.00 | 37 | 1004.6 |
| 20260503231604 | 13 | 8 | 37.0 | 49.9 | 0.00 | 0.00 | 0.00 | 39 | 1004.4 |
| 20260503230108 | 13 | 351 | 33.8 | 46.7 | 0.00 | 0.00 | 0.00 | 38 | 1004.1 |
| 20260503224602 | 13 | 354 | 33.8 | 48.3 | 0.00 | 0.00 | 0.00 | 38 | 1004.0 |
| 20260503223059 | 14 | 23 | 38.6 | 54.7 | 0.00 | 0.00 | 0.00 | 39 | 1003.9 |
| 20260503221600 | 15 | 9 | 38.6 | 56.3 | 0.00 | 0.00 | 0.00 | 34 | 1003.5 |
| 20260503220104 | 15 | 354 | 43.5 | 56.3 | 0.00 | 0.00 | 0.00 | 32 | 1003.2 |
| 20260503214602 | 15 | 351 | 38.6 | 57.9 | 0.00 | 0.00 | 0.00 | 31 | 1002.9 |
| 20260503213112 | 16 | 359 | 41.8 | 56.3 | 0.00 | 0.00 | 0.00 | 30 | 1003.2 |
| 20260503211601 | 17 | 359 | 45.1 | 69.2 | 0.00 | 0.00 | 0.00 | 33 | 1003.2 |
| 20260503210105 | 16 | 349 | 40.2 | 59.5 | 0.00 | 0.00 | 0.00 | 33 | 1003.1 |
| 20260503204600 | 16 | 347 | 45.1 | 56.3 | 0.00 | 0.00 | 0.00 | 33 | 1003.2 |
| 20260503203105 | 16 | 4 | 45.1 | 57.9 | 0.00 | 0.00 | 0.00 | 31 | 1003.0 |
| 20260503201559 | 16 | 4 | 40.2 | 62.8 | 0.00 | 0.00 | 0.00 | 31 | 1003.2 |
| 20260503200105 | 16 | 347 | 38.6 | 56.3 | 0.00 | 0.00 | 0.00 | 30 | 1002.9 |
| 20260503194557 | 16 | 337 | 35.4 | 51.5 | 0.00 | 0.00 | 0.00 | 33 | 1002.8 |
| 20260503193112 | 16 | 346 | 40.2 | 57.9 | 0.00 | 0.00 | 0.00 | 32 | 1002.7 |
| 20260503191644 | 17 | 359 | 40.2 | 56.3 | 0.00 | 0.00 | 0.00 | 29 | 1002.8 |
| 20260503184611 | 18 | 347 | 33.8 | 54.7 | 0.00 | 0.00 | 0.00 | 29 | 1002.6 |
| 20260503183110 | 18 | 359 | 43.5 | 59.5 | 0.00 | 0.00 | 0.00 | 29 | 1002.6 |
| 20260503181612 | 19 | 344 | 32.2 | 54.7 | 0.00 | 0.00 | 0.00 | 30 | 1002.6 |
| 20260503174603 | 18 | 334 | 30.6 | 49.9 | 0.00 | 0.00 | 0.00 | 32 | 1002.9 |
| 20260503173103 | 19 | 337 | 35.4 | 49.9 | 0.00 | 0.00 | 0.00 | 31 | 1003.1 |
| 20260503171558 | 20 | 351 | 35.4 | 48.3 | 0.00 | 0.00 | 0.00 | 29 | 1003.1 |
| 20260503160104 | 17 | 308 | 30.6 | 40.2 | 0.00 | 0.00 | 0.00 | 35 | 1003.8 |
| 20260503090105 | 5 | 252 | 16.1 | 20.9 | 0.00 | 0.00 | 0.00 | 66 | 1006.8 |
| 20260503081630 | 6 | 242 | 16.1 | 20.9 | 0.00 | 0.00 | 0.00 | 63 | 1007.5 |
| 20260503080117 | 5 | 236 | 11.3 | 17.7 | 0.00 | 0.00 | 0.00 | 64 | 1007.6 |
| 20260503071601 | 6 | 220 | 14.5 | 22.5 | 0.00 | 0.00 | 0.00 | 61 | 1008.3 |
| 20260503070107 | 5 | 222 | 16.1 | 24.1 | 0.00 | 0.00 | 0.00 | 63 | 1008.4 |
| 20260503060104 | 5 | 223 | 11.3 | 16.1 | 0.00 | 0.00 | 0.00 | 62 | 1009.3 |
| 20260503054605 | 5 | 224 | 9.7 | 12.9 | 0.00 | 0.00 | 0.00 | 62 | 1009.4 |
| 20260503053100 | 5 | 224 | 9.7 | 14.5 | 0.00 | 0.00 | 0.00 | 62 | 1009.5 |
| 20260503051558 | 5 | 227 | 8.0 | 12.9 | 0.00 | 0.00 | 0.00 | 60 | 1009.7 |
| 20260503050101 | 6 | 224 | 8.0 | 11.3 | 0.00 | 0.00 | 0.00 | 58 | 1009.8 |
| 20260503044613 | 6 | 216 | 6.4 | 9.7 | 0.00 | 0.00 | 0.00 | 58 | 1010.0 |
| 20260503043111 | 7 | 202 | 8.0 | 9.7 | 0.00 | 0.00 | 0.00 | 52 | 1010.2 |
| 20260503041601 | 8 | 226 | 8.0 | 11.3 | 0.00 | 0.00 | 0.00 | 50 | 1010.3 |
| 20260503034600 | 9 | 241 | 8.0 | 11.3 | 0.00 | 0.00 | 0.00 | 47 | 1010.7 |
| 20260503033136 | 10 | 228 | 8.0 | 9.7 | 0.00 | 0.00 | 0.00 | 47 | 1010.6 |
| 20260503031602 | 10 | 227 | 6.4 | 8.0 | 0.00 | 0.00 | 0.00 | 44 | 1010.6 |
| 20260503030113 | 11 | 227 | 6.4 | 8.0 | 0.00 | 0.00 | 0.00 | 44 | 1010.7 |